Temperature
15 16 16 15 15 15 16 16 15 16 17 18 18 17 18 19 18 18 17 16 16 15 15 14 13 13 12 12 12 11 11 11 11 10 10 10 10 9 9 9 9 9 8 8
14 15 16 15 15 15 15 16 16 16 16 18 19 19 19 19 18 18 17 16 16 15 15 14 14 13 12 12 11 11 11 11 10 10 10 9 9 9 9 9 9 8 8 8
12 14 14 13 15 15 15 15 16 15 16 18 17 17 18 18 18 18 17 16 16 15 15 15 14 13 13 12 11 11 10 10 10 9 9 9 9 9 9 8 8 8 7 7
11 13 11 13 16 16 16 16 16 16 17 17 17 18 18 18 18 17 17 16 16 15 15 14 14 13 12 12 11 10 10 10 9 9 9 9 8 8 8 8 7 7 7 6
10 11 12 14 15 16 15 15 16 16 16 16 17 17 16 17 17 17 16 16 15 15 14 14 13 13 12 11 10 10 9 9 9 8 8 8 8 8 7 7 7 6 6 6
10 10 11 14 15 16 15 14 16 16 15 15 15 13 13 16 16 16 15 15 15 14 14 13 13 12 11 11 10 10 9 9 8 8 8 7 7 7 7 6 6 6 5 5
10 10 12 15 15 15 13 13 16 17 16 15 13 14 15 15 15 15 15 14 14 13 13 12 12 11 11 10 10 9 9 8 8 7 7 7 6 6 6 5 5 5 4 4
10 10 11 13 14 14 14 16 17 17 17 16 16 15 15 15 14 14 14 13 13 13 12 12 11 11 10 9 9 9 8 8 7 7 6 6 6 5 5 5 4 4 4 3
11 12 13 14 14 16 17 16 16 16 16 16 15 14 14 13 13 13 13 12 12 12 11 11 10 10 10 9 9 8 8 7 7 6 6 5 5 5 4 4 3 3 3 2
12 12 12 14 15 15 16 15 16 16 16 15 14 14 13 13 12 12 12 12 11 11 10 10 10 9 9 8 8 8 7 7 6 6 5 5 4 4 3 3 3 2 2 2
12 12 12 13 14 15 15 15 15 15 15 15 14 13 13 12 12 12 11 11 11 10 10 9 9 8 8 8 7 7 7 6 6 5 5 4 4 3 3 2 2 1 1 1
12 12 12 12 14 14 14 14 14 14 13 13 14 13 12 12 12 11 11 10 10 10 9 9 8 8 7 7 7 6 6 5 5 4 4 3 3 2 2 2 1 1 0 -0
14 14 14 15 14 14 14 14 13 13 13 13 12 12 12 12 11 11 10 10 9 9 8 8 8 7 7 6 6 5 5 5 4 4 3 3 2 2 1 1 1 0 -0 -1
13 14 13 13 13 13 13 13 13 12 12 12 12 11 11 11 10 10 9 9 9 8 8 7 7 6 6 6 5 5 4 4 3 3 2 2 1 1 0 -0 -0 -1 -1 -1
12 13 13 13 12 12 12 12 11 11 11 10 11 11 10 10 10 9 9 8 8 7 7 6 6 6 5 5 4 4 3 3 2 2 1 1 0 -0 -1 -1 -1 -2 -2 -2
11 11 11 11 11 11 10 10 10 10 10 10 10 9 9 9 9 8 7 7 7 6 6 5 5 5 4 4 3 3 2 2 1 1 0 -0 -1 -1 -2 -2 -2 -3 -3 -3
9 8 9 9 9 9 9 10 10 10 9 9 9 9 8 8 7 7 6 6 5 5 5 4 4 4 3 3 2 2 1 1 0 -0 -1 -1 -2 -2 -3 -3 -4 -4 -4 -5
10 11 11 11 10 9 8 8 8 9 8 8 8 7 7 7 6 6 5 5 4 4 4 3 3 3 2 2 1 1 0 -0 -1 -1 -2 -2 -3 -3 -4 -4 -5 -5 -5 -5
9 9 9 9 9 9 8 8 7 7 7 7 7 6 6 6 5 5 4 4 3 3 3 2 2 2 1 1 0 -0 -1 -1 -2 -2 -3 -3 -4 -4 -5 -5 -6 -6 -6 -6
7 7 7 7 7 7 7 7 7 6 6 6 6 5 5 4 4 3 3 3 2 2 2 1 1 1 0 -0 -1 -1 -2 -2 -3 -3 -4 -4 -5 -5 -6 -6 -6 -7 -7 -7
6 6 6 6 5 5 5 5 5 5 5 4 5 4 4 3 2 2 2 2 1 1 0 0 -0 -1 -1 -2 -2 -3 -3 -3 -4 -4 -5 -5 -6 -6 -6 -7 -7 -7 -7 -8
4 4 4 4 4 3 3 4 4 4 3 3 3 3 2 2 1 1 1 1 -0 -0 -1 -1 -1 -2 -2 -3 -3 -3 -4 -4 -5 -5 -6 -6 -6 -7 -7 -7 -7 -8 -8 -8
2 2 2 2 2 2 2 2 2 2 2 2 1 1 1 1 0 0 -0 -1 -1 -2 -2 -2 -2 -3 -3 -4 -4 -4 -5 -5 -6 -6 -6 -7 -7 -7 -8 -8 -8 -8 -9 -9
-0 0 0 0 1 1 0 0 0 0 0 0 -0 -0 -0 -0 -1 -1 -1 -2 -2 -3 -3 -3 -3 -4 -4 -4 -5 -5 -5 -6 -6 -7 -7 -7 -8 -8 -8 -8 -9 -9 -9 -9
-1 -1 -1 -1 -1 -1 -1 -1 -1 -1 -1 -1 -2 -2 -2 -2 -2 -2 -3 -3 -3 -4 -4 -4 -4 -4 -5 -5 -6 -6 -6 -7 -7 -8 -8 -8 -8 -8 -9 -9 -9 -9 -10 -10
-3 -3 -3 -2 -2 -3 -2 -2 -2 -2 -2 -2 -3 -3 -3 -3 -3 -3 -4 -4 -4 -4 -5 -5 -5 -5 -6 -6 -6 -7 -7 -7 -7 -8 -8 -8 -9 -9 -9 -9 -9 -10 -10 -10
-4 -3 -3 -3 -3 -3 -3 -3 -3 -3 -3 -3 -4 -4 -4 -4 -4 -4 -5 -5 -5 -5 -5 -6 -6 -7 -7 -7 -7 -7 -8 -8 -8 -8 -9 -9 -9 -9 -9 -10 -10 -10 -10 -10
Wind_Speed
11 8 15 16 18 21 22 20 15 14 14 11 9 9 9 8 7 6 7 7 8 8 8 8 8 9 9 9 9 9 10 10 9 9 8 8 9 9 9 9 9 8 8 8
13 12 10 13 19 21 23 21 19 15 14 9 6 5 6 7 7 7 7 7 7 8 8 8 9 9 9 9 9 9 9 9 8 8 8 8 8 8 8 8 8 8 8 8
12 12 8 13 18 20 18 18 18 20 17 9 8 7 7 7 7 7 7 7 8 8 7 7 8 8 9 8 8 9 8 8 8 8 8 8 8 8 8 8 7 8 8 8
6 9 12 11 10 14 17 17 17 15 10 10 9 6 5 5 6 7 6 6 6 6 6 6 6 7 7 7 8 8 8 8 8 8 8 7 8 8 7 6 7 7 8 8
6 9 9 7 10 14 16 17 16 16 13 10 6 2 4 5 5 6 5 5 5 5 5 6 6 7 8 8 8 8 7 7 7 8 8 8 8 7 6 6 6 6 7 7
6 8 10 9 11 10 9 13 13 15 14 11 9 7 8 5 6 6 6 5 5 5 6 6 6 8 8 8 8 7 7 7 7 7 7 7 7 6 5 5 5 5 6 7
8 7 8 6 10 12 11 10 9 13 12 11 12 10 7 8 7 7 7 7 7 7 6 6 6 8 7 7 6 6 6 6 6 6 6 6 5 4 4 4 4 5 5 5
9 8 9 5 10 12 6 3 5 8 8 8 8 8 9 9 8 8 7 7 7 7 6 5 7 8 7 6 6 6 6 6 5 5 5 4 5 4 4 4 4 4 4 5
9 9 4 9 8 7 5 4 4 5 6 8 8 8 9 9 9 8 8 7 7 8 7 6 6 7 7 5 6 6 6 5 5 4 4 4 4 4 4 4 4 4 4 4
6 7 8 7 5 4 3 4 4 6 7 8 8 9 9 9 8 8 7 7 7 8 7 6 5 6 6 6 6 6 5 4 4 4 3 3 3 3 3 4 4 4 4 5
8 5 7 8 8 6 4 5 6 6 6 8 10 10 9 9 9 8 7 6 7 7 7 6 6 6 6 6 6 6 5 4 4 3 3 2 2 3 4 4 5 5 5 5
9 9 7 8 9 8 7 7 7 7 6 6 8 10 9 9 8 8 8 7 7 7 7 6 6 6 6 5 5 5 4 3 3 2 2 2 2 2 4 5 7 9 9 9
3 5 5 5 7 8 8 8 7 8 9 8 7 9 9 8 7 8 8 8 7 7 7 7 6 6 5 5 5 5 4 3 2 2 2 2 2 3 4 5 7 9 11 12
2 4 3 4 6 6 7 7 7 7 7 8 8 9 10 9 8 9 8 7 7 7 7 6 6 5 5 5 5 4 3 2 2 2 2 2 3 3 3 4 5 5 8 12
2 3 5 5 6 7 7 9 10 9 8 8 8 9 10 10 9 7 7 7 8 7 6 6 6 5 4 4 4 3 2 1 1 1 2 2 3 3 4 5 6 6 5 7
4 5 6 8 8 8 8 9 10 9 9 9 9 8 9 9 8 8 7 7 7 7 6 6 5 4 4 4 3 2 1 2 2 1 2 2 3 4 4 5 6 6 7 6
8 7 6 7 8 8 7 7 9 10 9 10 10 10 10 10 9 8 6 6 6 6 5 5 4 4 4 3 2 1 1 1 3 2 3 3 4 4 5 6 6 7 7 9
8 8 9 11 10 9 8 8 9 9 9 10 11 11 10 10 9 8 7 7 7 6 4 4 4 4 3 2 1 1 1 1 2 3 3 4 4 5 5 6 7 9 8 9
5 6 7 8 9 10 9 9 9 9 10 11 11 10 9 8 8 8 7 6 6 4 2 3 4 3 2 1 0 1 1 2 3 3 4 7 7 5 6 6 7 8 8 8
7 8 10 10 10 10 11 10 11 10 9 10 11 11 10 8 7 7 7 5 3 3 3 3 2 1 1 0 1 1 2 3 4 4 5 5 6 6 6 7 8 8 8 8
9 10 11 12 12 11 10 11 12 11 10 10 11 11 10 8 7 6 6 4 2 3 3 2 1 1 0 2 3 2 2 3 4 5 5 6 6 7 7 8 8 9 9 9
9 11 12 12 13 12 10 10 11 12 11 10 11 10 10 8 6 6 4 3 2 3 2 1 1 1 3 4 2 2 3 4 5 5 5 6 7 7 8 8 8 9 9 9
10 11 12 13 14 13 12 11 11 11 11 10 9 9 8 6 4 4 3 2 2 2 2 1 2 5 7 4 3 3 4 5 6 6 6 6 7 8 8 9 9 9 9 9
13 13 13 13 14 15 13 11 11 10 11 10 8 7 6 6 4 4 3 3 3 3 2 3 6 7 8 3 3 4 5 5 6 6 7 7 8 8 9 10 10 10 10 11
14 14 14 13 13 11 12 11 11 10 10 8 8 7 5 4 3 3 2 2 3 4 2 4 7 9 5 4 4 5 5 6 8 8 7 8 8 9 10 10 10 10 11 11
12 12 11 11 10 9 8 8 8 7 7 7 6 5 5 4 3 2 2 2 3 5 4 3 4 6 4 5 5 6 6 8 9 8 8 9 10 11 11 11 12 11 11 11
12 11 11 11 9 8 8 8 8 7 6 6 5 4 4 3 3 3 3 2 3 3 4 4 4 4 5 6 6 7 7 7 8 9 9 9 10 10 11 12 12 12 11 12
Wind_Direction
222 206 181 197 206 210 215 220 225 230 231 226 206 196 190 186 184 185 175 179 182 184 185 183 183 184 182 183 178 173 175 179 181 175 171 170 169 168 167 170 176 176 179 185
230 228 216 208 209 211 218 224 233 241 244 238 231 205 200 195 193 193 189 190 185 183 183 184 183 182 178 179 175 169 174 178 170 167 167 168 168 166 169 175 176 178 186 190
222 221 231 234 215 212 218 223 225 235 238 237 239 226 215 205 200 197 193 187 182 182 184 184 179 175 175 172 163 165 171 170 167 167 169 171 169 171 178 181 180 188 195 196
200 198 223 232 205 210 220 225 223 231 231 223 225 220 211 197 195 198 189 178 174 172 172 169 160 157 155 151 153 160 164 165 166 166 168 168 170 179 184 184 188 195 201 204
190 211 238 228 205 203 211 230 220 223 225 219 204 226 250 214 183 175 165 155 154 151 151 148 148 147 141 145 148 155 164 166 166 165 167 172 181 186 187 187 196 199 199 204
184 204 223 223 192 184 190 240 218 212 216 205 179 210 231 184 158 142 128 123 124 121 121 132 139 135 137 146 151 163 166 164 161 163 169 178 184 186 187 190 199 199 208 211
194 210 241 225 169 149 184 228 202 200 202 191 192 201 170 140 131 126 124 123 120 116 118 128 128 127 136 141 155 155 147 148 155 161 168 173 176 179 181 190 196 205 217 223
197 206 228 177 156 173 195 161 166 177 178 171 168 150 142 137 133 128 124 121 119 117 113 112 121 127 133 142 140 129 133 143 152 156 161 163 168 180 183 186 199 214 224 235
196 212 189 166 183 192 153 150 151 150 148 145 146 149 145 143 139 135 131 126 120 119 114 106 111 124 133 135 125 125 131 141 145 146 151 158 168 181 187 190 202 219 225 237
200 205 189 190 184 176 159 148 137 137 138 141 146 146 144 143 139 134 129 128 125 122 121 120 114 113 122 121 120 125 135 141 141 144 153 163 172 180 190 202 212 223 231 241
212 187 159 198 198 182 153 126 117 122 135 147 143 145 146 145 142 138 133 130 128 131 134 134 126 116 116 120 124 130 136 137 138 147 161 181 196 205 209 216 217 228 233 232
206 187 178 207 198 177 166 168 157 144 136 137 142 144 139 138 136 134 134 131 131 132 133 132 124 119 117 118 123 129 135 141 148 158 177 193 216 266 256 256 258 254 256 258
195 176 181 186 181 175 173 170 160 154 151 142 135 133 131 129 129 129 132 137 141 139 135 130 125 122 118 115 117 124 137 147 151 167 192 211 222 235 268 286 277 272 271 272
166 140 169 178 177 164 149 142 132 124 124 127 124 121 122 122 125 130 137 140 134 128 127 126 124 123 119 113 113 120 130 154 171 190 205 221 233 242 249 265 279 278 275 276
163 139 161 144 125 120 124 126 125 125 122 117 119 124 128 131 133 131 126 125 122 121 122 122 121 119 112 111 117 127 138 169 185 206 225 238 246 252 257 262 269 278 282 282
135 114 129 138 139 139 137 139 140 142 137 132 128 127 124 121 118 115 116 121 126 130 128 123 123 120 109 112 118 124 157 232 254 240 246 252 254 258 263 267 272 275 276 277
157 166 164 161 159 158 156 152 149 145 140 137 134 126 121 119 116 114 109 104 108 111 114 119 121 110 105 110 120 145 187 244 272 273 253 252 255 259 262 265 269 273 273 279
181 178 173 167 163 155 143 134 132 133 134 132 127 125 128 130 132 127 118 110 102 94 90 103 109 105 103 108 119 151 214 244 251 253 259 262 268 264 265 267 270 275 280 284
147 144 138 135 139 139 136 131 126 122 123 126 126 125 121 119 120 119 116 114 117 118 112 105 104 99 112 128 46 192 235 256 266 267 268 276 280 271 269 270 273 275 279 281
111 111 112 111 111 118 122 123 122 119 119 119 117 114 112 111 111 112 109 101 104 123 122 112 99 101 112 265 313 238 247 258 265 270 272 268 269 271 270 273 274 276 276 277
113 112 112 112 108 106 113 118 120 117 113 113 117 119 116 109 107 110 110 103 89 93 96 88 80 90 334 288 304 274 265 268 270 270 270 270 272 273 273 274 275 278 278 278
113 114 113 113 110 103 97 100 107 109 106 105 106 110 110 107 100 90 87 109 114 89 71 68 61 310 301 306 292 278 272 271 272 271 269 269 271 274 275 277 277 279 279 278
108 109 109 109 109 105 95 92 95 101 102 103 105 107 107 104 100 105 97 89 83 54 34 3 310 308 312 314 290 279 276 276 275 273 272 273 274 275 277 279 280 280 280 280
100 99 100 102 103 101 97 92 91 91 90 86 84 88 96 95 77 72 93 82 40 8 360 318 317 314 317 312 291 282 278 277 277 275 275 276 278 278 278 279 280 279 279 279
98 98 98 98 96 98 100 98 92 89 88 85 79 72 70 77 89 78 61 40 360 347 333 319 318 318 319 299 290 283 280 277 279 281 275 278 279 280 280 280 280 280 280 280
92 92 89 87 92 96 96 94 91 87 88 85 75 68 66 65 66 58 42 12 344 333 329 315 311 309 300 289 285 283 281 286 289 286 281 281 280 280 281 280 279 279 280 279
87 88 88 83 77 77 81 83 85 80 77 82 77 60 54 48 41 26 7 353 341 331 319 312 307 299 294 290 287 285 284 282 281 280 280 279 279 280 280 279 281 281 280 278
Height
1396 1395 1401 1408 1411 1414 1417 1418 1424 1420 1420 1416 1415 1416 1417 1419 1422 1425 1427 1428 1430 1431 1432 1434 1435 1437 1439 1441 1444 1446 1449 1451 1454 1458 1461 1464 1466 1469 1472 1474 1477 1479 1481 1482
1397 1394 1395 1400 1402 1405 1408 1409 1411 1412 1412 1406 1407 1409 1412 1415 1418 1420 1422 1424 1426 1427 1429 1430 1431 1433 1435 1437 1439 1442 1444 1447 1450 1453 1456 1459 1461 1464 1467 1469 1471 1473 1475 1476
1400 1395 1397 1402 1395 1397 1400 1399 1403 1407 1404 1404 1405 1406 1408 1410 1413 1415 1418 1420 1421 1423 1424 1426 1427 1429 1430 1433 1435 1438 1440 1443 1446 1448 1451 1453 1456 1459 1461 1463 1465 1467 1469 1470
1398 1400 1409 1389 1380 1385 1390 1390 1392 1394 1395 1398 1400 1402 1404 1406 1408 1411 1413 1415 1417 1418 1420 1422 1423 1425 1427 1430 1432 1434 1436 1439 1441 1444 1446 1449 1451 1453 1456 1458 1459 1461 1462 1464
1398 1398 1392 1380 1375 1377 1384 1384 1383 1386 1389 1392 1395 1398 1400 1402 1404 1406 1409 1411 1413 1414 1416 1418 1419 1421 1423 1425 1428 1430 1432 1434 1437 1439 1442 1444 1446 1448 1450 1452 1454 1455 1456 1457
1391 1395 1392 1373 1368 1368 1377 1383 1374 1377 1381 1386 1391 1400 1396 1397 1400 1402 1404 1406 1408 1410 1412 1414 1416 1418 1420 1422 1424 1426 1428 1431 1433 1436 1438 1440 1442 1444 1445 1447 1448 1449 1450 1451
1385 1387 1376 1362 1360 1365 1384 1377 1367 1369 1373 1378 1383 1387 1390 1393 1396 1398 1400 1403 1405 1407 1409 1411 1413 1415 1417 1419 1421 1423 1426 1428 1430 1432 1434 1436 1438 1439 1441 1442 1443 1444 1444 1445
1377 1381 1375 1358 1358 1364 1364 1361 1361 1364 1367 1372 1376 1381 1386 1389 1392 1395 1397 1400 1402 1404 1406 1408 1410 1412 1414 1416 1419 1421 1423 1425 1427 1429 1430 1432 1433 1435 1436 1437 1437 1438 1438 1438
1360 1360 1351 1351 1353 1355 1357 1359 1360 1362 1365 1369 1373 1377 1381 1386 1389 1392 1395 1397 1400 1402 1404 1406 1408 1410 1412 1414 1417 1418 1420 1422 1424 1425 1427 1428 1429 1430 1431 1431 1431 1432 1432 1431
1350 1348 1348 1349 1350 1353 1355 1357 1359 1361 1364 1367 1370 1374 1379 1383 1386 1389 1392 1395 1398 1400 1402 1404 1406 1409 1411 1413 1414 1416 1417 1419 1420 1421 1423 1424 1425 1425 1426 1426 1426 1426 1426 1425
1343 1342 1344 1346 1348 1351 1353 1355 1358 1361 1363 1366 1369 1372 1376 1380 1384 1387 1390 1393 1396 1398 1400 1402 1405 1407 1409 1410 1412 1413 1415 1416 1417 1418 1419 1420 1420 1421 1421 1421 1421 1421 1420 1419
1337 1337 1340 1342 1344 1348 1350 1353 1356 1358 1362 1365 1368 1371 1374 1378 1381 1385 1388 1391 1394 1396 1398 1401 1403 1405 1406 1408 1409 1411 1412 1413 1414 1414 1415 1415 1415 1416 1416 1416 1416 1415 1414 1414
1329 1331 1335 1338 1341 1344 1347 1350 1353 1356 1359 1363 1366 1369 1372 1376 1379 1383 1386 1389 1391 1394 1396 1399 1400 1402 1404 1405 1407 1408 1409 1409 1410 1410 1410 1410 1410 1410 1409 1409 1409 1409 1408 1407
1327 1329 1333 1335 1338 1341 1344 1347 1351 1354 1358 1361 1364 1367 1371 1374 1378 1381 1384 1387 1389 1392 1394 1396 1398 1400 1401 1403 1404 1405 1405 1406 1406 1406 1406 1406 1405 1405 1404 1402 1401 1400 1400 1399
1325 1327 1329 1332 1335 1338 1341 1345 1348 1351 1355 1359 1362 1365 1369 1372 1375 1379 1382 1385 1387 1389 1392 1394 1395 1397 1399 1400 1400 1401 1401 1402 1402 1402 1401 1401 1400 1399 1398 1396 1394 1393 1391 1390
1322 1325 1327 1329 1332 1335 1338 1342 1345 1349 1353 1356 1360 1364 1367 1371 1374 1377 1380 1382 1385 1387 1389 1391 1392 1394 1395 1396 1397 1397 1398 1398 1397 1397 1396 1395 1394 1393 1391 1390 1388 1386 1384 1382
1319 1322 1325 1327 1330 1333 1336 1339 1343 1346 1350 1354 1358 1362 1365 1369 1372 1375 1378 1380 1383 1385 1387 1388 1390 1391 1392 1392 1393 1393 1393 1393 1392 1392 1391 1389 1388 1387 1385 1383 1381 1379 1377 1376
1315 1318 1320 1323 1327 1331 1335 1338 1342 1345 1348 1352 1356 1360 1364 1367 1370 1373 1375 1378 1380 1382 1384 1386 1387 1388 1388 1389 1389 1388 1388 1387 1387 1386 1385 1383 1382 1380 1379 1377 1375 1372 1369 1368
1312 1316 1319 1322 1325 1329 1332 1336 1340 1344 1347 1351 1354 1358 1362 1365 1368 1371 1374 1376 1378 1380 1381 1383 1384 1384 1384 1384 1384 1384 1383 1382 1381 1380 1379 1377 1376 1374 1372 1370 1368 1365 1363 1360
1310 1314 1317 1320 1324 1327 1331 1334 1338 1342 1346 1350 1353 1357 1361 1364 1367 1369 1372 1374 1376 1377 1378 1379 1380 1380 1380 1380 1379 1378 1378 1377 1375 1374 1372 1371 1369 1367 1365 1363 1361 1358 1355 1353
1308 1312 1315 1318 1322 1327 1330 1334 1337 1341 1345 1349 1353 1356 1359 1363 1366 1368 1370 1372 1374 1375 1375 1376 1376 1376 1376 1375 1374 1374 1373 1371 1370 1368 1366 1364 1362 1360 1358 1355 1353 1350 1348 1345
1307 1311 1314 1318 1322 1326 1331 1335 1338 1341 1345 1349 1353 1356 1359 1362 1365 1367 1369 1370 1371 1372 1372 1372 1372 1372 1371 1371 1370 1368 1367 1366 1364 1362 1360 1358 1355 1353 1350 1348 1345 1342 1340 1337
1308 1311 1315 1318 1322 1326 1331 1336 1339 1343 1346 1350 1353 1356 1359 1361 1364 1365 1366 1368 1369 1369 1369 1369 1368 1368 1367 1366 1364 1363 1361 1360 1358 1355 1353 1351 1349 1346 1343 1340 1337 1334 1331 1328
1309 1312 1316 1320 1324 1328 1332 1337 1341 1345 1348 1351 1354 1357 1359 1361 1362 1364 1365 1365 1366 1366 1366 1365 1364 1363 1362 1361 1359 1357 1355 1353 1351 1349 1347 1344 1341 1338 1335 1332 1329 1326 1323 1320
1312 1315 1320 1323 1327 1331 1336 1339 1343 1346 1349 1352 1355 1357 1359 1361 1362 1362 1363 1363 1363 1363 1362 1361 1360 1359 1357 1355 1353 1351 1349 1347 1345 1342 1339 1337 1334 1330 1327 1324 1321 1317 1314 1311
1317 1321 1325 1328 1332 1336 1339 1342 1345 1348 1351 1353 1356 1358 1359 1360 1361 1361 1361 1360 1360 1359 1358 1356 1355 1353 1352 1350 1348 1345 1343 1341 1338 1335 1332 1329 1325 1322 1319 1315 1312 1309 1305 1302
1323 1327 1330 1334 1338 1341 1343 1346 1348 1350 1353 1354 1356 1358 1358 1359 1359 1359 1358 1357 1356 1355 1353 1352 1350 1348 1346 1344 1341 1339 1336 1334 1331 1327 1324 1321 1317 1313 1310 1306 1303 1299 1296 1292